Regional Weather Roundup
Issued by NWS

Home | Current Version | Previous Version | Graphics & Text | Print | Product List | Glossary On
Versions: 1 2 3 4 5 6 7 8 9 10 11 12 13 14 15 16 17 18 19 20 21 22 23 24 25 26 27 28 29 30 31 32 33 34 35 36 37 38 39 40 41 42 43 44 45 46 47 48 49 50
000
ASUS45 KBOU 050807
RWRCO

WEATHER ROUNDUP FOR COLORADO
NATIONAL WEATHER SERVICE DENVER/BOULDER CO
100 AM MST THU MAR 05 2015

NOTE: "FAIR" INDICATES FEW OR NO CLOUDS BELOW 12000 FEET WITH NO
SIGNIFICANT WEATHER AND/OR OBSTRUCTIONS TO VISIBILITY.

COZ001>005-013-030-031-050900-
...NORTHWEST COLORADO...

CITY           SKY/WX    TMP DP  RH WIND       PRES   REMARKS
CRAIG          PTCLDY     5   0  79 SE5       30.31R WCI  -4
HAYDEN         PTCLDY     5  -2  72 SE14      30.29R WCI -12
MEEKER         CLEAR     12   3  67 E5        30.31R WCI   4
MOUNT WERNER   NOT AVBL
STEAMBOAT SPGS CLOUDY     2  -4  74 CALM      30.29S
WALDEN         PTCLDY    -4 -11  71 SE7       30.19R WCI -18
$$

COZ006>008-011-050900-
...WEST CENTRAL VALLEYS...

CITY           SKY/WX    TMP DP  RH WIND       PRES   REMARKS
GRAND JUNCTION CLEAR     26  12  55 E9        30.32R WCI  17
MONTROSE       PTCLDY    23  13  65 SE7       30.35R WCI  15
EAGLE          PTCLDY     9   3  78 CALM      30.37R
RIFLE          CLEAR     20   8  60 E5        30.36R WCI  13
DELTA          PTCLDY    26  12  57 E12       30.36R WCI  15
NUCLA          PTCLDY    23  14  68 E9        30.34S WCI  13
$$

COZ017>023-064>068-050900-
...SOUTHWEST COLORADO...

CITY           SKY/WX    TMP DP  RH WIND       PRES   REMARKS
DURANGO        CLEAR     16   5  62 CALM      30.24R
CORTEZ         CLEAR     20  13  74 NE10      30.29S WCI   9
PAGOSA SPRINGS CLEAR      4  -1  77 CALM      30.25R
TELLURIDE      PTCLDY     9   1  70 SE6       30.26R WCI   0
WOLF CREEK PAS   N/A      0  -2  92 N7        30.17R WCI -13
$$

COZ009-010-012-014-032>034-037-058>063-050900-
...CENTRAL COLORADO...

CITY           SKY/WX    TMP DP  RH WIND       PRES   REMARKS
ASPEN          PTCLDY     4  -5  66 SW9       30.27S WCI -10
BUENA VISTA    PTCLDY    12  -5  46 W13       30.21R WCI  -3
COPPER MTN     NOT AVBL
BERTHOUD PASS  CLOUDY    -8 -15  71 N21G29    30.01R WCI -32
COTTONWOOD PAS PTCLDY    12 -17  26 NW7       30.13R WCI   2
GUNNISON       PTCLDY     1  -9  60 CALM      30.32R
KREMMLING      PTCLDY     3  -4  72 CALM      30.31R
LEADVILLE      PTCLDY    -9 -16  71 NE9       30.16R WCI -26
SALIDA         PTCLDY    11   0  61 W3        30.30S
SUNLIGHT       PTCLDY     7   1  78 CALM        N/A
WILKERSON PASS PTCLDY     5 -15  39 NW12G22   30.06R WCI -11
$$

COZ069>075-050900-
...SAN LUIS VALLEY/SANGRE DE CRISTO MOUNTAINS...

CITY           SKY/WX    TMP DP  RH WIND       PRES   REMARKS
ALAMOSA        PTCLDY    15   7  70 NW7       30.23R WCI   5
LA VETA PASS   FLURRIES   5  -2  72 MISG      30.10R
SAGUACHE       PTCLDY    18   0  45 NW10      30.24R WCI   6
$$

COZ035-036-038>040-050900-
...NORTHERN COLORADO FRONT RANGE...

CITY           SKY/WX    TMP DP  RH WIND       PRES   REMARKS
DENVER INTL AP CLEAR      3  -3  76 S12       30.17F WCI -13
DMNS CITY PARK   N/A     11   4  75 S5        30.19S WCI   2
AURORA         CLEAR      9   1  68 S12       30.17F WCI  -5
FRONT RANGE AP CLEAR      7   0  72 S13       30.18S WCI  -9
ERIE MUNI ARPT PTCLDY     6   2  85 CALM      30.20S
BOULDER MUN AP PTCLDY    10   5  79 CALM      30.18S
CENTENNIAL     PTCLDY    10   0  63 S12       30.17S WCI  -5
BROOMFIELD     PTCLDY    10   5  79 SW3       30.17S
FORT COLLINS   CLEAR      9   3  78 N6        30.21S WCI  -1
LONGMONT       CLEAR      5   0  78 SW5       30.22S WCI  -4
$$

COZ041-046-047-076>085-087-088-050900-
...PIKES PEAK/PALMER DIVIDE AND SOUTHERN FOOTHILLS...

CITY           SKY/WX    TMP DP  RH WIND       PRES   REMARKS
COLO. SPRINGS  LGT SNOW   4   1  88 NE3       30.22S FOG
A. F. ACADEMY  FLURRIES  -2  -6  84 N8        30.19R WCI -17
ELLICOTT       NOT AVBL
FALCON         MOCLDY     2   0  88 W10       30.17S WCI -13
FORT CARSON    PTCLDY     0  -3  85 NW5       30.22F WCI -10
LIMON          CLEAR      4  -1  80 NW9       30.22S WCI -10
MONUMENT HILL  PTCLDY     1  -6  71 SW8       30.13S WCI -12
TRINIDAD       PTCLDY     3  -1  83 SW12      30.26S WCI -13
$$

COZ042>045-048>051-090-091-050900-
...NORTHEAST COLORADO...

CITY           SKY/WX    TMP DP  RH WIND       PRES   REMARKS
GREELEY ARPT   CLEAR      7  -2  66 NE3       30.21F
AKRON          CLEAR     11   6  81 SW10      30.22F WCI  -3
BURLINGTON     CLEAR     15   7  70 W12       30.27F WCI   2
WRAY           CLEAR     13   9  84 SW6       30.29S WCI   3
STERLING       CLEAR     10   7  85 SW8       30.26S WCI  -1
HOLYOKE        NOT AVBL
FORT MORGAN    CLEAR      9   4  81 W5        30.24F WCI   0
$$

COZ086-089-092>099-050900-
...SOUTHEAST COLORADO...

CITY           SKY/WX    TMP DP  RH WIND       PRES   REMARKS
PUEBLO         PTCLDY     5   2  87 CALM      30.30F
LA JUNTA       CLEAR     11   7  84 W9        30.33S WCI  -2
LAMAR          CLEAR     13  11  92 SW6       30.34S WCI   4
SPRINGFIELD      N/A      7   3  84 W8        30.31F WCI  -6
$$


USA.gov is the U.S. government's official web portal to all federal, state and local government web resources and services.